Weather History for Molokai, HI

Change the Weather History Date:

Wednesday, January 2, 2013

  Actual Average Record
Temperature  
Mean Temperature 71 °F -  
Max Temperature 73 °F 77 °F 88 °F (1989)
Min Temperature 69 °F 64 °F 55 °F (1973)
Cooling Degree Days 6    
Growing Degree Days 21 (Base 50)    
Moisture  
Dew Point 66 °F    
Average Humidity 84    
Maximum Humidity 88    
Minimum Humidity 73    
Precipitation  
Precipitation 0.03 in - - ()
Sea Level Pressure  
Sea Level Pressure 30.05 in    
Wind  
Wind Speed 13 mph (NE)    
Max Wind Speed 18 mph    
Max Gust Speed 36 mph    
Visibility 9 miles    
Events Rain    
Averages and records for this station are not official NWS values.
T = Trace of Precipitation, MM = Missing Value Source: NWS Daily Summary

Daily Weather History Graph

Daily Weather History Graph

Search for Another Location

Airport:

Trip Planner

Search our weather history database for the weather conditions in past years. The results will help you decide how hot, cold, wet, or windy it might be!

Date:

Astronomy

Jan. 02, 2013 Rise Set
Actual Time 7:06 AM HST 5:59 PM HST
Civil Twilight 6:42 AM HST 6:23 PM HST
Nautical Twilight 6:14 AM HST 6:51 PM HST
Astronomical Twilight 5:47 AM HST 7:18 PM HST
Moon 10:57 PM HST (1/2) 10:34 AM HST (1/2)
Length of Visible Light 11h 41m
Length of Day
10h 53m
Waning Gibbous, 73% of the Moon is Illuminated
Jan 2
Waning Gibbous
Jan 4
Last Quarter
Jan 11
New
Jan 18
First Quarter
Jan 26
Full

Hourly Weather History & Observations

Time (HST) Temp. Dew Point Humidity Pressure Visibility Wind Dir Wind Speed Gust Speed Precip Events Conditions
12:04 AM 69.8 °F 64.4 °F 83% 30.06 in 4.0 mi NNE 18.4 mph 32.2 mph 0.01 in Rain Light Rain
12:29 AM 69.8 °F 64.4 °F 83% 30.06 in 7.0 mi NNE 16.1 mph 35.7 mph 0.01 in Rain Light Rain
12:54 AM 69.1 °F 64.9 °F 87% 30.08 in 5.0 mi NNE 16.1 mph 26.5 mph 0.02 in Rain Light Rain
1:54 AM 70.0 °F 64.0 °F 81% 30.07 in 7.0 mi NNE 9.2 mph 20.7 mph 0.01 in Rain Light Rain
2:54 AM 70.0 °F 64.0 °F 81% 30.06 in 8.0 mi NNE 16.1 mph 26.5 mph 0.00 in Rain Light Rain
3:38 AM 69.8 °F 64.4 °F 83% 30.05 in 9.0 mi NE 9.2 mph 21.9 mph 0.00 in Rain Light Rain
3:54 AM 70.0 °F 66.0 °F 87% 30.05 in 10.0 mi NNE 12.7 mph 26.5 mph 0.00 in   Overcast
4:08 AM 69.8 °F 64.4 °F 83% 30.03 in 10.0 mi NNE 10.4 mph 20.7 mph N/A   Overcast
4:15 AM 69.8 °F 64.4 °F 83% 30.02 in 10.0 mi NNE 11.5 mph 20.7 mph N/A   Mostly Cloudy
4:34 AM 69.8 °F 64.4 °F 83% 30.04 in 9.0 mi ENE 10.4 mph 18.4 mph 0.00 in Rain Light Rain
4:41 AM 69.8 °F 66.2 °F 88% 30.04 in 10.0 mi ENE 10.4 mph 18.4 mph 0.00 in   Overcast
4:54 AM 69.1 °F 64.9 °F 87% 30.05 in 10.0 mi ENE 9.2 mph 21.9 mph 0.00 in   Overcast
5:54 AM 70.0 °F 66.0 °F 87% 30.06 in 7.0 mi NE 10.4 mph 25.3 mph 0.00 in Rain Light Rain
6:03 AM 69.8 °F 66.2 °F 88% 30.05 in 10.0 mi NNE 9.2 mph 21.9 mph 0.00 in Rain Light Rain
6:11 AM 69.8 °F 66.2 °F 88% 30.05 in 10.0 mi NE 10.4 mph 20.7 mph 0.00 in Rain Light Rain
6:54 AM 70.0 °F 66.0 °F 87% 30.06 in 9.0 mi NE 10.4 mph 18.4 mph 0.00 in Rain Light Rain
7:42 AM 69.8 °F 66.2 °F 88% 30.05 in 10.0 mi NNE 13.8 mph 21.9 mph 0.00 in   Overcast
7:54 AM 70.0 °F 66.0 °F 87% 30.06 in 5.0 mi NE 13.8 mph 25.3 mph 0.00 in Rain Light Rain
8:03 AM 69.8 °F 66.2 °F 88% 30.06 in 9.0 mi NE 9.2 mph 21.9 mph 0.00 in Rain Light Rain
8:10 AM 69.8 °F 66.2 °F 88% 30.06 in 10.0 mi NNE 8.1 mph 20.7 mph 0.00 in   Mostly Cloudy
8:54 AM 71.1 °F 66.0 °F 84% 30.08 in 9.0 mi NNE 10.4 mph 19.6 mph 0.00 in   Overcast
9:54 AM 72.0 °F 66.0 °F 81% 30.10 in 10.0 mi NNE 9.2 mph 18.4 mph N/A   Mostly Cloudy
10:23 AM 71.6 °F 66.2 °F 83% 30.08 in 6.0 mi NE 13.8 mph 21.9 mph 0.00 in Rain Light Rain
10:54 AM 72.0 °F 66.0 °F 81% 30.09 in 10.0 mi NE 10.4 mph 19.6 mph 0.00 in   Scattered Clouds
11:07 AM 73.4 °F 66.2 °F 78% 30.07 in 10.0 mi NNE 12.7 mph 18.4 mph N/A   Mostly Cloudy
11:54 AM 72.0 °F 66.9 °F 84% 30.07 in 7.0 mi NE 10.4 mph 20.7 mph 0.00 in Rain Light Rain
12:42 PM 71.6 °F 66.2 °F 83% 30.03 in 10.0 mi NNE 11.5 mph 21.9 mph 0.00 in   Overcast
12:54 PM 72.0 °F 66.0 °F 81% 30.04 in 7.0 mi NE 12.7 mph 21.9 mph 0.00 in Rain Light Rain
1:11 PM 71.6 °F 66.2 °F 83% 30.02 in 6.0 mi NE 12.7 mph 21.9 mph 0.00 in Rain Light Rain
1:54 PM 73.0 °F 66.9 °F 81% 30.02 in 10.0 mi NE 8.1 mph 23.0 mph 0.00 in   Overcast
2:08 PM 73.4 °F 66.2 °F 78% 30.00 in 10.0 mi NE 10.4 mph 19.6 mph N/A   Overcast
2:15 PM 71.6 °F 66.2 °F 83% 30.00 in 10.0 mi NE 13.8 mph 23.0 mph N/A   Overcast
2:45 PM 73.4 °F 64.4 °F 73% 29.99 in 10.0 mi NNE 11.5 mph 18.4 mph N/A   Mostly Cloudy
2:54 PM 72.0 °F 66.0 °F 81% 30.00 in 10.0 mi NNE 12.7 mph 21.9 mph 0.00 in Rain Light Rain
3:54 PM 72.0 °F 66.0 °F 81% 30.01 in 10.0 mi NE 12.7 mph 23.0 mph 0.00 in   Mostly Cloudy
4:54 PM 72.0 °F 66.0 °F 81% 30.00 in 10.0 mi NE 15.0 mph 25.3 mph N/A   Mostly Cloudy
5:54 PM 71.1 °F 66.0 °F 84% 30.02 in 9.0 mi NE 11.5 mph 19.6 mph 0.00 in Rain Light Rain
6:29 PM 71.6 °F 66.2 °F 83% 30.02 in 10.0 mi NE 10.4 mph 20.7 mph 0.00 in Rain Light Rain
6:54 PM 70.0 °F 64.9 °F 84% 30.04 in 10.0 mi NE 11.5 mph 24.2 mph 0.00 in   Mostly Cloudy
7:02 PM 71.6 °F 66.2 °F 83% 30.02 in 10.0 mi NE 13.8 mph 19.6 mph N/A   Mostly Cloudy
7:44 PM 69.8 °F 64.4 °F 83% 30.03 in 10.0 mi NE 10.4 mph 20.7 mph 0.00 in   Scattered Clouds
7:54 PM 70.0 °F 64.9 °F 84% 30.05 in 10.0 mi NE 11.5 mph 19.6 mph 0.00 in   Clear
8:29 PM 69.8 °F 66.2 °F 88% 30.05 in 10.0 mi NE 9.2 mph - N/A   Mostly Cloudy
8:54 PM 69.1 °F 64.9 °F 87% 30.06 in 10.0 mi NE 8.1 mph 18.4 mph 0.00 in   Mostly Cloudy
9:54 PM 70.0 °F 64.9 °F 84% 30.07 in 8.0 mi NNE 12.7 mph 23.0 mph 0.00 in Rain Light Rain
10:54 PM 70.0 °F 66.0 °F 87% 30.07 in 10.0 mi NNE 13.8 mph 19.6 mph 0.00 in   Mostly Cloudy
11:42 PM 69.8 °F 66.2 °F 88% 30.04 in 10.0 mi NE 10.4 mph 23.0 mph 0.00 in   Scattered Clouds
11:54 PM 70.0 °F 66.0 °F 87% 30.05 in 10.0 mi NNE 12.7 mph 20.7 mph 0.00 in   Partly Cloudy